[[{"header":{"parameterUnit":"m.s-1","parameterCategory":1,"la1":30.2991,"la2":30.254,"lo1":-89.0895,"lo2":-89.0444,"dy":0.0017,"dx":0.0017,"nx":28,"ny":28,"refTime":"2025-01-16T09:00:00:Z","depth":0,"parameterNumber":2,"parameterNumberName":"U-component_of_WINDS"},"data":[0,0,0,0,0,0,0,0,0,0,0,0,0,0,0,0,0,0,0,0,0,0,0,0,0,0,0,0,0,0,0,0,0,0,0,0,0,0,0,0,0,0,0,0,0,0,0,0,0,0,0,0,0,0,0,0,0,0,-1.1061,-1.1062,0,-1.1108,-1.1108,-1.1109,-1.105,-1.1048,-1.1046,-1.1044,-1.1094,-1.1097,-1.1101,0,0,0,0,0,0,0,0,0,0,0,0,0,-1.0924,-1.0927,-1.1061,-1.1062,-1.1062,-1.1108,-1.1108,-1.1109,-1.1051,-1.1048,-1.1045,-1.1043,-1.1093,-1.1097,-1.1101,0,0,0,0,0,0,0,0,0,0,0,0,0,-1.0978,-1.0928,-1.1061,-1.1039,-1.1037,-1.1107,-1.1108,-1.1109,-1.1051,-1.1048,-1.1045,-1.1042,-1.1092,-1.1097,-1.1101,-1.1197,0,0,-1.1117,-1.1119,0,0,0,0,0,0,0,0,-1.0975,-1.0984,-1.1041,-1.104,-1.1039,-1.107,-1.1078,-1.1139,-1.1052,-1.1046,-1.1044,-1.104,-1.1089,-1.1094,-1.111,-1.1199,-1.1201,-1.1117,-1.112,-1.1122,-1.1124,0,0,0,0,0,0,0,-1.0972,-1.0981,-1.108,-1.1042,-1.1041,-1.1027,-1.1031,-1.1089,-1.1085,-1.1046,-1.1042,-1.1048,-1.1087,-1.1105,-1.111,-1.1202,-1.1117,-1.1121,-1.1125,-1.1127,-1.1372,-1.1376,0,0,0,0,0,0,-1.097,-1.0978,-1.1078,-1.1081,-1.0998,-1.1032,-1.1037,-1.1063,-1.1084,-1.1084,-1.1051,-1.1045,-1.1098,-1.1105,-1.1112,-1.1226,-1.1122,-1.1127,-1.113,-1.1369,-1.1373,-1.1377,0,0,0,0,0,0,-1.0968,-1.098,-1.1076,-1.1029,-1.104,-1.1038,-1.1068,-1.1066,-1.1083,-1.1088,-1.1087,-1.107,-1.1096,-1.1105,-1.1176,-1.1227,-1.1129,-1.1134,-1.1365,-1.137,-1.1375,-1.1454,0,0,0,0,0,0,-1.0964,-1.0979,-1.1015,-1.103,-1.1043,-1.1139,-1.1071,-1.1069,-1.1092,-1.1085,-1.1105,-1.1105,-1.1094,-1.1169,-1.1181,-1.1232,-1.1138,-1.136,-1.1367,-1.1373,-1.1447,-1.1461,-1.1474,0,0,0,0,0,-1.0959,-1.1036,-1.1017,-1.103,-1.1087,-1.1142,-1.115,-1.1135,-1.1096,-1.1133,-1.1135,-1.1105,-1.1219,-1.1177,-1.119,-1.1243,-1.1357,-1.1365,-1.1373,-1.1441,-1.1459,-1.1474,0,0,0,0,0,0,-1.1028,-1.1037,-1.1017,-1.11,-1.1121,-1.1132,-1.1178,-1.1154,-1.1186,-1.1179,-1.1159,-1.1164,-1.124,-1.1248,-1.1201,-1.1337,-1.1282,-1.1293,-1.1329,-1.1346,-1.1359,-1.1356,-1.1142,0,0,0,0,0,-1.1053,-1.1096,-1.1102,-1.1175,-1.1186,-1.1181,-1.1204,-1.119,-1.1211,-1.122,-1.1228,-1.125,-1.1291,-1.1318,-1.1356,-1.1447,-1.1451,-1.149,-1.1503,-1.1514,-1.1525,-1.1575,-1.1592,-1.1403,-1.1403,-1.1403,0,0,-1.1105,-1.1115,-1.1144,-1.1189,-1.1204,-1.125,-1.1188,-1.124,-1.1274,-1.1228,-1.1296,-1.1302,-1.1325,-1.1407,-1.1444,-1.1417,-1.1578,-1.1524,-1.1533,-1.1538,-1.1585,-1.1603,-1.1619,-1.1409,-1.1408,-1.1407,0,0,-1.1223,-1.1235,-1.1298,-1.1313,-1.1335,-1.133,-1.1345,-1.1361,-1.1363,-1.143,-1.1397,-1.1437,-1.1508,-1.1526,-1.1545,-1.1669,-1.1643,-1.1682,-1.1753,-1.1802,-1.1817,-1.183,-1.1876,-1.1893,-1.1692,-1.1692,-1.1692,0,-1.1286,-1.1353,-1.1333,-1.1387,-1.1409,-1.1367,-1.1431,-1.1447,-1.1481,-1.1497,-1.1465,-1.1553,-1.1566,-1.1652,-1.1682,-1.1698,-1.1715,-1.1681,-1.1816,-1.1829,-1.1841,-1.1885,-1.1902,-1.1697,-1.1696,-1.1696,-1.1695,0,-1.1429,-1.1477,-1.1525,-1.1558,-1.1584,-1.1643,-1.1632,-1.1661,-1.1645,-1.1644,-1.1713,-1.1727,-1.1767,-1.1786,-1.177,-1.187,-1.1853,-1.1819,-1.1764,-1.1864,-1.1905,-1.1922,-1.1703,-1.1702,-1.17,-1.1699,0,0,-1.1595,-1.1615,-1.1634,-1.1648,-1.1669,-1.1706,-1.1762,-1.18,-1.1827,-1.1851,-1.1899,-1.1959,-1.1927,-1.1949,-1.1935,-1.1977,-1.2077,-1.1938,-1.1938,-1.1965,-1.2189,-1.2216,-1.2236,-1.2058,-1.2061,-1.2064,-1.2188,0,-1.1715,-1.1813,-1.1797,-1.1892,-1.1936,-1.1897,-1.1946,-1.1965,-1.1965,-1.2003,-1.2003,-1.2046,-1.2001,-1.2013,-1.2053,-1.2056,-1.2122,-1.2047,-1.2105,-1.2107,-1.2103,-1.2257,-1.2286,-1.2403,-1.2203,-1.2206,-1.2208,0,-1.1869,-1.1899,-1.1999,-1.2013,-1.203,-1.2075,-1.2109,-1.2145,-1.2165,-1.2162,-1.2186,-1.2164,-1.2221,-1.2163,-1.2242,-1.2191,-1.2214,-1.2218,-1.2222,-1.223,-1.2166,-1.227,-1.2439,-1.2458,-1.2233,-1.2231,-1.2229,0,-1.1983,-1.2047,-1.2115,-1.2129,-1.2146,-1.2179,-1.2188,-1.2204,-1.2229,-1.2258,-1.2274,-1.2309,-1.233,-1.2359,-1.2347,-1.2306,-1.2429,-1.237,-1.243,-1.2431,-1.246,-1.2459,-1.2638,-1.2471,-1.247,-1.247,-1.247,0,-1.2121,-1.2184,-1.2167,-1.2209,-1.2279,-1.2258,-1.2328,-1.2332,-1.2347,-1.239,-1.2357,-1.2398,-1.238,-1.242,-1.2411,-1.2479,-1.2488,-1.2488,-1.2485,-1.2493,-1.2493,-1.2509,-1.2501,-1.2475,-1.2474,-1.2473,-1.2472,0,-1.226,-1.2251,-1.2323,-1.2333,-1.2337,-1.2388,-1.2397,-1.2437,-1.2434,-1.2489,-1.25,-1.2496,-1.2541,-1.2532,-1.2581,-1.2575,-1.2662,-1.2648,-1.2655,-1.2653,-1.2714,-1.2709,-1.2911,-1.2937,-1.2751,-1.2753,-1.2755,0,-1.235,-1.2398,-1.2413,-1.2439,-1.245,-1.2492,-1.2516,-1.2498,-1.2524,-1.2551,-1.2588,-1.263,-1.2663,-1.2737,-1.2739,-1.2777,-1.2765,-1.2833,-1.2771,-1.2777,-1.2769,-1.2767,-1.2773,-1.2847,-1.2849,-1.285,-1.2852,0,-1.2511,-1.2504,-1.254,-1.2574,-1.2604,-1.263,-1.2654,-1.2677,-1.266,-1.2692,-1.2737,-1.2763,-1.2813,-1.2856,-1.2891,-1.2901,-1.2875,-1.2871,-1.2887,-1.2896,-1.29,-1.2901,-1.2691,-1.2867,-1.2866,-1.2864,-1.2864,-1.2863,-1.263,-1.2671,-1.2688,-1.2729,-1.2744,-1.2767,-1.2805,-1.2806,-1.2843,-1.2883,-1.2869,-1.2921,-1.294,-1.2984,-1.2998,-1.3039,-1.3014,-1.3037,-1.3044,-1.305,-1.3059,-1.2891,-1.3045,-1.3045,-1.3044,-1.3044,-1.3044,0,-1.2791,-1.28,-1.2838,-1.2871,-1.2904,-1.2874,-1.2898,-1.2927,-1.2974,-1.2993,-1.3026,-1.3078,-1.3119,-1.3124,-1.3163,-1.3195,-1.3184,-1.3206,-1.3205,-1.3208,-1.3078,-1.3061,-1.3214,-1.3214,-1.3214,-1.3214,-1.3214,-1.3214,-1.2879,-1.2947,-1.2942,-1.3017,-1.3025,-1.3076,-1.3092,-1.3113,-1.3128,-1.3189,-1.3222,-1.3224,-1.3238,-1.3277,-1.3314,-1.3314,-1.3331,-1.3358,-1.3355,-1.3234,-1.3217,-1.3201,-1.3185,-1.3362,-1.3362,-1.3481,-1.3482,-1.3483]},{"header":{"parameterUnit":"m.s-1","parameterCategory":1,"la1":30.2991,"la2":30.254,"lo1":-89.0895,"lo2":-89.0444,"dy":0.0017,"dx":0.0017,"nx":28,"ny":28,"refTime":"2025-01-16T09:00:00:Z","depth":0,"parameterNumber":3,"parameterNumberName":"V-component_of_WINDS"},"data":[0,0,0,0,0,0,0,0,0,0,0,0,0,0,0,0,0,0,0,0,0,0,0,0,0,0,0,0,0,0,0,0,0,0,0,0,0,0,0,0,0,0,0,0,0,0,0,0,0,0,0,0,0,0,0,0,0,0,-2.4002,-2.4001,0,-2.3976,-2.3975,-2.3975,-2.3888,-2.3886,-2.3884,-2.3882,-2.3857,-2.3859,-2.386,0,0,0,0,0,0,0,0,0,0,0,0,0,-2.3977,-2.3978,-2.4002,-2.4001,-2.4001,-2.3976,-2.3975,-2.3975,-2.3888,-2.3885,-2.3883,-2.3881,-2.3857,-2.3858,-2.386,0,0,0,0,0,0,0,0,0,0,0,0,0,-2.3973,-2.3978,-2.4002,-2.3954,-2.395,-2.3976,-2.3975,-2.3975,-2.3888,-2.3885,-2.3882,-2.388,-2.3857,-2.3858,-2.386,-2.3931,0,0,-2.3866,-2.3866,0,0,0,0,0,0,0,0,-2.3973,-2.3974,-2.3962,-2.3958,-2.3953,-2.3932,-2.3958,-2.396,-2.3889,-2.3912,-2.3882,-2.3878,-2.3885,-2.3884,-2.3886,-2.3929,-2.3928,-2.3866,-2.3867,-2.3868,-2.3868,0,0,0,0,0,0,0,-2.3974,-2.3975,-2.3991,-2.3962,-2.3956,-2.3935,-2.3931,-2.3958,-2.3915,-2.391,-2.3903,-2.3901,-2.3882,-2.3884,-2.3885,-2.3928,-2.3866,-2.3867,-2.3868,-2.3869,-2.4028,-2.4031,0,0,0,0,0,0,-2.398,-2.3975,-2.3992,-2.3991,-2.3956,-2.3938,-2.3933,-2.3942,-2.3915,-2.3908,-2.3904,-2.3897,-2.3883,-2.3883,-2.3883,-2.3964,-2.3868,-2.3869,-2.387,-2.4025,-2.4029,-2.4032,0,0,0,0,0,0,-2.398,-2.3983,-2.3993,-2.3981,-2.3981,-2.3941,-2.3951,-2.3943,-2.3945,-2.391,-2.3902,-2.3914,-2.388,-2.3881,-2.3919,-2.3962,-2.387,-2.3872,-2.4021,-2.4026,-2.403,-2.4127,0,0,0,0,0,0,-2.398,-2.3983,-2.401,-2.3982,-2.3982,-2.403,-2.3954,-2.3944,-2.3948,-2.3939,-2.3918,-2.3912,-2.3878,-2.3917,-2.3921,-2.3963,-2.3873,-2.4017,-2.4023,-2.4029,-2.412,-2.4134,-2.4147,0,0,0,0,0,-2.3979,-2.4038,-2.4011,-2.4014,-2.4014,-2.4032,-2.4032,-2.3992,-2.3952,-2.3978,-2.3956,-2.3912,-2.3956,-2.3922,-2.3925,-2.3969,-2.4014,-2.4021,-2.4028,-2.4113,-2.4131,-2.4146,0,0,0,0,0,0,-2.4072,-2.4034,-2.4004,-2.4055,-2.4048,-2.4017,-2.4049,-2.4012,-2.4016,-2.4008,-2.3958,-2.3954,-2.3999,-2.3987,-2.3949,-2.4035,-2.3978,-2.3986,-2.4042,-2.4058,-2.4071,-2.4074,-2.3875,0,0,0,0,0,-2.4099,-2.4116,-2.4082,-2.4131,-2.4128,-2.409,-2.4096,-2.4066,-2.4056,-2.4053,-2.4033,-2.4026,-2.4038,-2.4047,-2.4056,-2.4117,-2.4111,-2.4148,-2.4162,-2.4173,-2.4181,-2.4213,-2.4229,-2.4055,-2.4055,-2.4055,0,0,-2.4154,-2.4135,-2.4149,-2.4149,-2.414,-2.416,-2.4088,-2.4112,-2.4126,-2.4056,-2.4091,-2.4077,-2.4065,-2.4115,-2.4136,-2.4107,-2.4228,-2.4182,-2.4191,-2.4193,-2.4222,-2.4238,-2.4253,-2.406,-2.4059,-2.4058,0,0,-2.4265,-2.4252,-2.4291,-2.4283,-2.4269,-2.4242,-2.4252,-2.4227,-2.4214,-2.4248,-2.4196,-2.4213,-2.4235,-2.4229,-2.4229,-2.4336,-2.4296,-2.434,-2.4411,-2.4443,-2.4456,-2.4468,-2.4507,-2.4522,-2.4348,-2.4348,-2.4348,0,-2.4336,-2.4363,-2.4317,-2.4344,-2.4345,-2.4281,-2.4321,-2.4315,-2.4306,-2.4309,-2.4275,-2.4301,-2.4289,-2.4337,-2.4363,-2.4364,-2.4374,-2.4343,-2.4458,-2.4469,-2.448,-2.4517,-2.4531,-2.4354,-2.4353,-2.4352,-2.4352,0,-2.445,-2.447,-2.4504,-2.4495,-2.45,-2.4534,-2.4493,-2.4504,-2.4472,-2.4449,-2.4485,-2.4468,-2.4472,-2.4481,-2.4451,-2.4525,-2.4507,-2.4467,-2.4409,-2.4503,-2.4537,-2.455,-2.4362,-2.436,-2.4358,-2.4357,0,0,-2.4621,-2.4585,-2.4598,-2.4593,-2.4572,-2.4587,-2.4617,-2.4621,-2.4631,-2.4626,-2.4651,-2.4671,-2.4633,-2.4633,-2.4601,-2.4629,-2.4716,-2.4585,-2.4584,-2.4611,-2.4796,-2.4828,-2.4845,-2.4688,-2.4691,-2.4693,-2.4798,0,-2.4727,-2.4777,-2.4735,-2.4793,-2.4811,-2.4749,-2.4776,-2.4766,-2.4746,-2.4758,-2.4735,-2.475,-2.4699,-2.4698,-2.4722,-2.47,-2.4752,-2.4691,-2.4712,-2.4714,-2.4719,-2.4862,-2.4896,-2.4996,-2.4811,-2.4813,-2.4814,0,-2.4858,-2.4857,-2.4917,-2.4891,-2.4897,-2.4922,-2.4921,-2.4934,-2.4922,-2.4904,-2.4904,-2.4865,-2.4893,-2.4835,-2.4874,-2.4834,-2.484,-2.483,-2.4833,-2.4835,-2.4771,-2.4869,-2.5027,-2.5043,-2.4834,-2.4833,-2.4831,0,-2.4978,-2.4992,-2.5029,-2.5026,-2.4997,-2.5016,-2.5005,-2.499,-2.4994,-2.4994,-2.4997,-2.5,-2.5003,-2.5007,-2.497,-2.4931,-2.5014,-2.4953,-2.5002,-2.5003,-2.5024,-2.5023,-2.5186,-2.5025,-2.5025,-2.5025,-2.5025,0,-2.5101,-2.514,-2.5082,-2.5106,-2.5147,-2.5099,-2.5142,-2.5124,-2.5111,-2.513,-2.5077,-2.5096,-2.5046,-2.506,-2.5031,-2.5068,-2.5069,-2.5057,-2.5049,-2.5063,-2.5065,-2.5067,-2.506,-2.5029,-2.5028,-2.5027,-2.5026,0,-2.5243,-2.5206,-2.5242,-2.5211,-2.5204,-2.5236,-2.521,-2.523,-2.5205,-2.523,-2.5233,-2.5194,-2.5208,-2.5171,-2.5179,-2.516,-2.5214,-2.5194,-2.5219,-2.5213,-2.5265,-2.5261,-2.5436,-2.5457,-2.5282,-2.5284,-2.5285,0,-2.5325,-2.5353,-2.5324,-2.5333,-2.5324,-2.5339,-2.5343,-2.5296,-2.5303,-2.529,-2.5312,-2.5321,-2.5326,-2.5351,-2.5325,-2.5331,-2.5312,-2.5372,-2.5312,-2.5325,-2.5314,-2.5314,-2.5317,-2.5386,-2.5388,-2.5389,-2.5391,0,-2.5475,-2.5454,-2.5462,-2.5463,-2.5469,-2.5468,-2.5463,-2.5473,-2.5423,-2.5433,-2.5446,-2.545,-2.5457,-2.5468,-2.5468,-2.5457,-2.5417,-2.541,-2.5421,-2.5436,-2.545,-2.5444,-2.5254,-2.5406,-2.5405,-2.5404,-2.5403,-2.5402,-2.559,-2.5612,-2.5595,-2.5605,-2.5596,-2.5593,-2.561,-2.5587,-2.5596,-2.5598,-2.557,-2.5589,-2.5575,-2.5571,-2.5564,-2.5579,-2.5551,-2.5568,-2.5573,-2.5578,-2.5588,-2.5446,-2.5579,-2.5578,-2.5578,-2.5577,-2.5577,0,-2.5738,-2.5724,-2.5733,-2.5727,-2.5735,-2.5694,-2.5686,-2.5696,-2.5713,-2.5703,-2.5709,-2.5724,-2.5733,-2.5706,-2.5712,-2.5729,-2.5711,-2.5732,-2.5731,-2.573,-2.5611,-2.5601,-2.5747,-2.5747,-2.5747,-2.5747,-2.5747,-2.5747,-2.5816,-2.5852,-2.5829,-2.586,-2.5845,-2.5862,-2.5862,-2.5858,-2.585,-2.5869,-2.5876,-2.5858,-2.5842,-2.5845,-2.5852,-2.5844,-2.5849,-2.5878,-2.5864,-2.5754,-2.5738,-2.5722,-2.5712,-2.5879,-2.5879,-2.5981,-2.5982,-2.5983]}]]